Location: Coors Field
(39.7564°N, 104.9943°W)
Time: 22:24:27
(UTC-06:00)

ISS - Visible Passes

Search period start: 01 September 2015 00:00
Search period end: 11 September 2015 00:00
Orbit: 400 x 402 km, 51.6° (Epoch: 01 September)

Date Brightness Start Highest point End Pass type
(mag) Time Alt. Az. Time Alt. Az. Time Alt. Az.
06 Sep -0.4 05:49:13 10° SSE 05:50:32 12° SE 05:51:59 10° ESE visible
08 Sep -1.6 05:37:19 10° SSW 05:40:09 28° SE 05:43:01 10° ENE visible
09 Sep -0.8 04:46:08 13° SSE 04:47:01 14° SE 04:48:56 10° E visible
10 Sep -3.2 05:27:59 23° SW 05:29:52 72° SE 05:33:07 10° NE visible
